Simultaneous Nadir Overpasses (SNOs) Predictions

Prediction of SNOs between GOES-17 and METOP-B Satellite Orbit:

Table of predicted SNOs for the next 14.0 days since TLE Epoch: 12/3/2022
Index Date Time (GOES-17) GOES-17 Lat,Lon METOP-B Lat,Lon Distance(km) Time Diff (sec)
1 12/03/2022 06:20:47 -0.01,-137.32 0.96,-133.11 480.03 80
2 12/04/2022 18:39:39 0.01,-137.32 0.10,-137.67 40.15 80
3 12/07/2022 06:38:02 -0.00,-137.29 0.01,-137.28 2.18 80
4 12/09/2022 18:38:56 -0.00,-137.27 -0.09,-136.85 47.91 80
5 12/11/2022 06:55:17 0.01,-137.24 -0.92,-141.45 479.05 80
6 12/12/2022 06:37:18 0.00,-137.23 0.15,-136.45 88.27 80
7 12/13/2022 18:53:31 -0.00,-137.21 0.84,-141.02 433.98 80
8 12/14/2022 18:35:32 0.00,-137.19 -0.24,-136.01 133.21 80
9 12/16/2022 06:51:53 -0.01,-137.15 -0.77,-140.62 394.30 80
